Back to catalog

NINGXIA-1 7

AliveScienceLEO
NORAD 49019·PAYLOAD·🇨🇳 China

Launched Jul 9, 2021 from Taiyuan Satellite Launch Center

Loading…

Next Passes (next 24 hours)

TLE

FreshSource: Space-Track

Epoch: Sep 14, 2026, 15:06 UTC

1 49019U 21064B   26257.62930777 -.00000032  00000-0  57665-4 0  9998
2 49019  45.0020 183.2634 0007929 305.8423  54.1676 14.08558751266855

Track NINGXIA-1 7 in real time with AllMySat

Download on the App Store